This demonstration page uses our WeatherBlox Daily Observations layout. Learn more.

Hourly Observations for March 9, 2016

Temp ( °F °C ) Dew Point ( °F °C ) Humidity (%) Winds ( mph kmh ) Pressure ( in mb ) Visibility ( mi km ) Precip ( " mm )
12:15 am 00:15 Clear 33 0.6 30 -1 89 89 NNE 6 9 29.94 1014 10 16.0934 0 0
12:35 am 00:35 Clear 33 0.7 30 -0.9 89 89 Calm 29.94 1014 10 16.0934 0 0
12:55 am 00:55 Clear 35 1.5 31 -0.5 87 87 Calm 29.97 1015 10 16.0934 0 0
1:15 am 01:15 Clear 32 0 29 -1.8 88 88 Calm 30 1016 10 16.0934 0 0
1:35 am 01:35 Clear 32 0 30 -1.1 92 92 Calm 30 1016 10 16.0934 0 0
1:55 am 01:55 Clear 31 -0.8 28 -2.1 91 91 Calm 30 1016 10 16.0934 0 0
2:15 am 02:15 Clear 31 -0.5 28 -2.3 88 88 Calm 30 1016 10 16.0934 0 0
2:35 am 02:35 Clear 29 -1.9 25 -3.9 86 86 Calm 30.03 1017 10 16.0934 0 0
2:55 am 02:55 Clear 31 -0.6 28 -2.2 89 89 Calm 30 1016 10 16.0934 0 0
3:15 am 03:15 Clear 30 -1.1 28 -2.4 91 91 Calm 30 1016 10 16.0934 0 0
3:35 am 03:35 Clear 31 -0.5 29 -1.9 90 90 Calm 30 1016 10 16.0934 0 0
3:55 am 03:55 Clear 30 -1 28 -2.5 90 90 Calm 29.97 1015 10 16.0934 0 0
4:15 am 04:15 Clear 32 -0.1 30 -1.1 93 93 SSW 7 11 30 1016 10 16.0934 0 0
4:35 am 04:35 Clear 30 -1 29 -1.9 94 94 Calm 29.97 1015 10 16.0934 0 0
4:55 am 04:55 Clear 32 0 31 -0.6 96 96 SW 3 6 30 1016 10 16.0934 0 0
5:15 am 05:15 Clear 30 -1.3 28 -2.2 94 94 Calm 29.97 1015 10 16.0934 0 0
5:35 am 05:35 Clear 30 -0.9 29 -1.6 95 95 Calm 30 1016 10 16.0934 0 0
5:55 am 05:55 Clear 28 -2.2 27 -3 94 94 Calm 30.03 1017 10 16.0934 0 0
6:15 am 06:15 Clear 30 -1 29 -1.7 95 95 W 5 7 30 1016 10 16.0934 0 0
6:35 am 06:35 Clear 28 -2.2 27 -2.9 95 95 W 3 6 30.03 1017 10 16.0934 0 0
6:55 am 06:55 Clear 29 -1.4 28 -2.1 95 95 WNW 3 6 30.03 1017 10 16.0934 0 0
7:15 am 07:15 Sunny 29 -1.5 28 -2.3 94 94 Calm 30.03 1017 10 16.0934 0 0
7:35 am 07:35 Sunny 30 -1.2 28 -2 94 94 Calm 30.06 1018 10 16.0934 0 0
7:55 am 07:55 Sunny 32 -0.1 30 -1.1 93 93 Calm 30.06 1018 10 16.0934 0 0
8:15 am 08:15 Sunny 35 1.8 33 0.4 91 91 Calm 30.09 1019 10 16.0934 0 0
8:35 am 08:35 Sunny 38 3.3 35 1.4 88 88 Calm 30.06 1018 10 16.0934 0 0
8:55 am 08:55 Sunny 41 5.1 37 2.6 84 84 SW 5 7 30.06 1018 10 16.0934 0 0
9:15 am 09:15 Sunny 44 6.6 37 2.7 76 76 SSW 6 9 30.03 1017 10 16.0934 0 0
9:35 am 09:35 Sunny 46 7.7 37 2.8 71 71 SSW 8 13 30.03 1017 10 16.0934 0 0
9:55 am 09:55 Sunny 47 8.4 37 2.6 67 67 SSW 9 15 30.03 1017 10 16.0934 0 0
10:15 am 10:15 Sunny 48 9 37 2.5 64 64 SSW 8 13 30.03 1017 10 16.0934 0 0
10:35 am 10:35 Sunny 49 9.7 36 2.3 60 60 SSW 7 11 30 1016 10 16.0934 0 0
10:55 am 10:55 Sunny 51 10.6 36 2.3 57 57 SSW 10 17 30 1016 10 16.0934 0 0
11:15 am 11:15 Sunny 52 11.2 36 2.2 54 54 SSW 12 19 30 1016 10 16.0934 0 0
11:35 am 11:35 Sunny 54 12 36 2.2 51 51 SSW 8 13 30 1016 10 16.0934 0 0
11:55 am 11:55 Sunny 55 12.6 36 2.3 50 50 SW 9 15 29.97 1015 10 16.0934 0 0
12:15 pm 12:15 Sunny 56 13.1 36 2.2 48 48 SW 7 11 29.94 1014 10 16.0934 0 0
12:35 pm 12:35 Sunny 57 13.7 36 2.1 46 46 SW 7 11 29.94 1014 10 16.0934 0 0
12:55 pm 12:55 Sunny 58 14.5 36 2.3 44 44 WSW 6 9 29.94 1014 10 16.0934 0 0
1:15 pm 13:15 Sunny 60 15.3 35 1.5 39 39 SSW 6 9 29.94 1014 10 16.0934 0 0
1:35 pm 13:35 Sunny 61 16.1 32 0.2 34 34 WSW 9 15 29.88 1012 10 16.0934 0 0
1:55 pm 13:55 Sunny 62 16.6 31 -0.3 32 32 WSW 7 11 29.88 1012 10 16.0934 0 0
2:15 pm 14:15 Sunny 62 16.8 30 -0.9 30 30 W 6 9 29.88 1012 10 16.0934 0 0
2:35 pm 14:35 Sunny 63 17.2 30 -1 29 29 SW 6 9 29.85 1011 10 16.0934 0 0
2:55 pm 14:55 Sunny 63 17.4 28 -2.5 26 26 SW 8 13 29.85 1011 10 16.0934 0 0
3:15 pm 15:15 Sunny 64 17.8 27 -2.8 25 25 WSW 7 11 29.85 1011 10 16.0934 0 0
3:35 pm 15:35 Sunny 65 18.1 28 -2.4 25 25 WSW 9 15 29.85 1011 10 16.0934 0 0
3:55 pm 15:55 Sunny 65 18.1 27 -2.6 24 24 W 8 13 29.85 1011 10 16.0934 0 0
4:15 pm 16:15 Hazy 65 18.4 28 -2.3 25 25 SW 7 11 29.85 1011 5 8.0467 0.03 0.762
4:35 pm 16:35 Sunny 64 17.9 28 -2.1 26 26 SW 7 11 29.85 1011 10 16.0934 0.03 0.762
4:55 pm 16:55 Sunny 64 18 28 -2.2 25 25 W 5 7 29.85 1011 10 16.0934 0.03 0.762
5:15 pm 17:15 Sunny 64 18 28 -2.3 25 25 SSW 7 11 29.85 1011 10 16.0934 0 0
5:35 pm 17:35 Sunny 64 17.6 28 -2.1 26 26 S 6 9 29.88 1012 10 16.0934 0 0
5:55 pm 17:55 Sunny 63 17.1 28 -2 27 27 SW 3 6 29.88 1012 10 16.0934 0 0
6:15 pm 18:15 Sunny 61 16.3 29 -1.9 29 29 Calm 29.88 1012 10 16.0934 0 0
6:35 pm 18:35 Sunny 59 14.9 28 -2.1 31 31 SE 3 6 29.91 1013 10 16.0934 0 0
6:55 pm 18:55 Clear 54 12.1 28 -2.2 37 37 SE 5 7 29.91 1013 10 16.0934 0 0
7:15 pm 19:15 Clear 51 10.7 29 -1.8 42 42 SSE 6 9 29.94 1014 10 16.0934 0 0
7:35 pm 19:35 Clear 52 11.1 28 -2.3 39 39 SSE 7 11 29.97 1015 10 16.0934 0 0
7:55 pm 19:55 Clear 49 9.5 29 -1.8 46 46 SSE 8 13 29.97 1015 10 16.0934 0 0
8:15 pm 20:15 Partly Cloudy 48 8.7 31 -0.6 52 52 SSE 9 15 30 1016 10 16.0934 0 0
8:35 pm 20:35 Partly Cloudy 48 8.9 32 0 54 54 S 8 13 29.97 1015 10 16.0934 0 0
8:55 pm 20:55 Partly Cloudy 50 9.9 33 0.4 52 52 S 7 11 29.97 1015 10 16.0934 0 0
9:15 pm 21:15 Mostly Cloudy 50 10.1 34 1.1 54 54 S 5 7 30 1016 10 16.0934 0 0
9:35 pm 21:35 Cloudy 50 10.1 35 1.5 55 55 S 8 13 30 1016 10 16.0934 0 0
9:55 pm 21:55 Cloudy 51 10.3 35 1.6 55 55 S 7 11 30 1016 10 16.0934 0 0
10:15 pm 22:15 Cloudy 50 10.1 35 1.8 57 57 SSW 9 15 30 1016 10 16.0934 0 0
10:35 pm 22:35 Cloudy 51 10.4 35 1.9 56 56 W 16 26 30.03 1017 10 16.0934 0 0
10:55 pm 22:55 Cloudy with Rain 53 11.5 38 3.3 57 57 W 8 13 30.06 1018 10 16.0934 0 0
11:15 pm 23:15 Cloudy with Light Rain 51 10.4 42 5.3 71 71 Calm 30.06 1018 10 16.0934 0 0
11:35 pm 23:35 Cloudy 50 9.9 42 5.5 74 74 Calm 30.06 1018 10 16.0934 0 0
11:55 pm 23:55 Mostly Cloudy 49 9.2 42 5.3 77 77 NE 5 7 30.09 1019 10 16.0934 0 0

Powered by AerisWeather